This is the latest recevied weather packets stored in our database for station/object EA3HRE-10. If no packets are shown the sender has not sent any weather packets the latest 1 day(s).
| Time | Temp. | Humidity | Pressure | Rain* | Wind** | Luminosity | Snow |
|---|---|---|---|---|---|---|---|
| 1777834968 | 23.89° C | 49% | 1014.7 hPa | - | - | - | - |
| 1777834068 | 23.89° C | 49% | 1014.6 hPa | - | - | - | - |
| 1777833168 | 23.89° C | 48% | 1014.6 hPa | - | - | - | - |
| 1777832268 | 24.44° C | 48% | 1014.6 hPa | - | - | - | - |
| 1777831368 | 24.44° C | 48% | 1014.8 hPa | - | - | - | - |
| 1777830468 | 24.44° C | 47% | 1014.6 hPa | - | - | - | - |
| 1777829567 | 25° C | 47% | 1014.7 hPa | - | - | - | - |
| 1777828667 | 25° C | 47% | 1014.7 hPa | - | - | - | - |
| 1777827767 | 25° C | 48% | 1014.5 hPa | - | - | - | - |
| 1777826869 | 24.44° C | 49% | 1014.4 hPa | - | - | - | - |
| 1777825967 | 25° C | 48% | 1014.1 hPa | - | - | - | - |
| 1777825067 | 24.44° C | 49% | 1014 hPa | - | - | - | - |
| 1777824167 | 24.44° C | 48% | 1014 hPa | - | - | - | - |
| 1777823266 | 24.44° C | 48% | 1014.3 hPa | - | - | - | - |
| 1777822366 | 23.89° C | 50% | 1014.2 hPa | - | - | - | - |
| 1777821466 | 24.44° C | 49% | 1014.5 hPa | - | - | - | - |
| 1777820566 | 23.89° C | 50% | 1014.5 hPa | - | - | - | - |
| 1777819666 | 25° C | 47% | 1014.4 hPa | - | - | - | - |
| 1777818766 | 25° C | 48% | 1014.3 hPa | - | - | - | - |
| 1777817866 | 24.44° C | 48% | 1014.3 hPa | - | - | - | - |
| 1777816966 | 24.44° C | 47% | 1014.5 hPa | - | - | - | - |
| 1777816066 | 24.44° C | 48% | 1014.9 hPa | - | - | - | - |
| 1777815166 | 24.44° C | 48% | 1015.1 hPa | - | - | - | - |
| 1777814265 | 24.44° C | 49% | 1015.7 hPa | - | - | - | - |
| 1777813365 | 24.44° C | 49% | 1016 hPa | - | - | - | - |
* Rain since midnight (hover to see other rain measurements)
** Current wind speed in m/s (hover to see current wind gust speed)